Cane Valley, Kentucky
Current Conditions -  °F | °C
As of 1:15 AM on Sunday 23 Nov 2014 (Local Time) from K6I2 Reporting Station
Broken Clouds Broken Clouds  
Wind Chill: 55°   Ceiling: 3000
Heat Index: 55°   Visibility: 10mi
Dew Point: 39°   Wind: 12mph
Humidity: 54%   Direction: 190°S
Pressure: 30.05"   Gusts: NA
Location:  37.18°N, 85.32°W
Report Text: K6I2 230715Z AUTO 19010KT 10SM BKN030 BKN085 13/04 A3005 RMK AO2
Loading
Personal Weather Stations






























Interactive Weather Map New forecast layout! Learn more

10-Day Weather Forecast

Advertisements
Track Severe Weather on mobile